TimePDT,TemperatureF,Dew PointF,Humidity,Sea Level PressureIn,VisibilityMPH,Wind Direction,Wind SpeedMPH,Gust SpeedMPH,PrecipitationIn,Events,Conditions,WindDirDegrees,DateUTC
12:15 AM,66.2,44.6,46,29.84,10.0,NNW,16.1,-,N/A,,Clear,340,2013-09-25 07:15:00
12:35 AM,66.2,44.6,46,29.84,10.0,NNW,13.8,-,N/A,,Clear,340,2013-09-25 07:35:00
12:55 AM,66.2,44.6,46,29.84,10.0,NNW,13.8,-,N/A,,Clear,330,2013-09-25 07:55:00
1:15 AM,64.4,44.6,49,29.84,10.0,NNW,9.2,-,N/A,,Clear,330,2013-09-25 08:15:00
1:35 AM,64.4,44.6,49,29.84,10.0,NNW,9.2,-,N/A,,Clear,330,2013-09-25 08:35:00
1:55 AM,64.4,46.4,52,29.84,10.0,NW,11.5,-,N/A,,Clear,320,2013-09-25 08:55:00
2:15 AM,62.6,46.4,55,29.84,10.0,NW,15.0,-,N/A,,Clear,320,2013-09-25 09:15:00
2:35 AM,62.6,46.4,55,29.84,10.0,NW,15.0,23.0,N/A,,Clear,320,2013-09-25 09:35:00
2:55 AM,62.6,44.6,52,29.85,10.0,NW,18.4,-,N/A,,Clear,320,2013-09-25 09:55:00
3:15 AM,60.8,44.6,55,29.85,10.0,NW,15.0,-,N/A,,Clear,320,2013-09-25 10:15:00
3:35 AM,60.8,46.4,59,29.86,10.0,NW,17.3,-,N/A,,Clear,320,2013-09-25 10:35:00
3:55 AM,60.8,44.6,55,29.85,10.0,NW,13.8,-,N/A,,Clear,320,2013-09-25 10:55:00
4:15 AM,59.0,44.6,59,29.86,10.0,NW,11.5,-,N/A,,Clear,310,2013-09-25 11:15:00
4:35 AM,59.0,44.6,59,29.86,10.0,NW,11.5,-,N/A,,Partly Cloudy,310,2013-09-25 11:35:00
4:55 AM,59.0,44.6,59,29.86,10.0,NW,10.4,-,N/A,,Mostly Cloudy,320,2013-09-25 11:55:00
5:15 AM,59.0,44.6,59,29.86,10.0,NW,9.2,-,N/A,,Overcast,320,2013-09-25 12:15:00
5:35 AM,57.2,44.6,63,29.87,10.0,WNW,10.4,-,N/A,,Scattered Clouds,300,2013-09-25 12:35:00
5:55 AM,57.2,44.6,63,29.87,10.0,WNW,6.9,-,N/A,,Mostly Cloudy,300,2013-09-25 12:55:00
6:15 AM,57.2,44.6,63,29.88,10.0,NW,8.1,-,N/A,,Mostly Cloudy,310,2013-09-25 13:15:00
6:35 AM,55.4,44.6,67,29.89,10.0,NW,6.9,-,N/A,,Scattered Clouds,310,2013-09-25 13:35:00
6:55 AM,55.4,44.6,67,29.89,10.0,NW,8.1,-,N/A,,Partly Cloudy,320,2013-09-25 13:55:00
7:15 AM,55.4,44.6,67,29.90,10.0,NW,6.9,-,N/A,,Scattered Clouds,320,2013-09-25 14:15:00
7:35 AM,55.4,44.6,67,29.90,10.0,NW,5.8,-,N/A,,Partly Cloudy,320,2013-09-25 14:35:00
7:55 AM,55.4,44.6,67,29.90,10.0,NW,6.9,-,N/A,,Clear,320,2013-09-25 14:55:00
8:15 AM,57.2,44.6,63,29.91,10.0,NNW,8.1,-,N/A,,Clear,330,2013-09-25 15:15:00
8:35 AM,59.0,44.6,59,29.91,10.0,NNW,11.5,-,N/A,,Clear,330,2013-09-25 15:35:00
8:55 AM,60.8,44.6,55,29.91,10.0,NNW,16.1,-,N/A,,Clear,340,2013-09-25 15:55:00
9:15 AM,62.6,44.6,52,29.91,10.0,North,15.0,18.4,N/A,,Clear,350,2013-09-25 16:15:00
9:35 AM,62.6,44.6,52,29.92,10.0,NNW,12.7,-,N/A,,Clear,330,2013-09-25 16:35:00
9:55 AM,64.4,44.6,49,29.92,10.0,NNW,13.8,-,N/A,,Clear,330,2013-09-25 16:55:00
10:15 AM,64.4,46.4,52,29.91,10.0,NNW,10.4,16.1,N/A,,Clear,340,2013-09-25 17:15:00
10:35 AM,66.2,44.6,46,29.91,10.0,NNW,10.4,-,N/A,,Clear,340,2013-09-25 17:35:00
10:55 AM,66.2,44.6,46,29.91,10.0,NW,12.7,17.3,N/A,,Clear,310,2013-09-25 17:55:00
11:15 AM,68.0,46.4,46,29.90,10.0,WNW,10.4,-,N/A,,Clear,300,2013-09-25 18:15:00
11:35 AM,68.0,46.4,46,29.89,10.0,NW,9.2,16.1,N/A,,Clear,320,2013-09-25 18:35:00
11:55 AM,68.0,46.4,46,29.88,10.0,NW,9.2,-,N/A,,Clear,320,2013-09-25 18:55:00
12:15 PM,68.0,46.4,46,29.87,10.0,NW,9.2,-,N/A,,Clear,320,2013-09-25 19:15:00
12:35 PM,69.8,46.4,43,29.86,10.0,West,9.2,17.3,N/A,,Clear,270,2013-09-25 19:35:00
12:55 PM,71.6,46.4,41,29.86,10.0,NNW,11.5,16.1,N/A,,Clear,330,2013-09-25 19:55:00
1:15 PM,71.6,46.4,41,29.85,10.0,NW,13.8,18.4,N/A,,Clear,310,2013-09-25 20:15:00
1:35 PM,71.6,46.4,41,29.84,5.0,WNW,9.2,20.7,N/A,,Clear,300,2013-09-25 20:35:00
1:55 PM,71.6,46.4,41,29.83,10.0,NW,11.5,-,N/A,,Partly Cloudy,310,2013-09-25 20:55:00
2:15 PM,71.6,46.4,41,29.82,10.0,NW,6.9,-,N/A,,Partly Cloudy,310,2013-09-25 21:15:00
2:35 PM,73.4,46.4,38,29.82,10.0,WNW,15.0,19.6,N/A,,Clear,290,2013-09-25 21:35:00
2:55 PM,73.4,44.6,36,29.81,10.0,NW,5.8,-,N/A,,Clear,320,2013-09-25 21:55:00
3:15 PM,73.4,46.4,38,29.80,10.0,NW,8.1,-,N/A,,Clear,310,2013-09-25 22:15:00
3:35 PM,73.4,44.6,36,29.79,10.0,North,12.7,19.6,N/A,,Clear,350,2013-09-25 22:35:00
3:55 PM,73.4,44.6,36,29.79,10.0,WNW,12.7,17.3,N/A,,Clear,300,2013-09-25 22:55:00
4:15 PM,73.4,44.6,36,29.78,10.0,NNW,9.2,20.7,N/A,,Clear,330,2013-09-25 23:15:00
4:35 PM,73.4,44.6,36,29.78,10.0,NW,12.7,-,N/A,,Clear,310,2013-09-25 23:35:00
4:55 PM,73.4,44.6,36,29.77,10.0,NNW,13.8,18.4,N/A,,Clear,330,2013-09-25 23:55:00
5:15 PM,73.4,42.8,33,29.76,10.0,NNW,15.0,-,N/A,,Clear,330,2013-09-26 00:15:00
5:35 PM,73.4,42.8,33,29.76,10.0,NW,11.5,-,N/A,,Clear,310,2013-09-26 00:35:00
5:55 PM,71.6,41.0,33,29.75,10.0,NNW,12.7,-,N/A,,Clear,340,2013-09-26 00:55:00
6:15 PM,71.6,41.0,33,29.75,10.0,NW,13.8,-,N/A,,Clear,320,2013-09-26 01:15:00
6:35 PM,69.8,39.2,33,29.74,10.0,NNW,10.4,-,N/A,,Clear,330,2013-09-26 01:35:00
6:55 PM,69.8,39.2,33,29.74,10.0,NW,8.1,-,N/A,,Clear,310,2013-09-26 01:55:00
7:15 PM,66.2,39.2,37,29.74,10.0,NW,9.2,-,N/A,,Clear,320,2013-09-26 02:15:00
7:35 PM,66.2,39.2,37,29.74,10.0,NW,9.2,-,N/A,,Clear,320,2013-09-26 02:35:00
7:55 PM,64.4,39.2,40,29.74,10.0,NW,10.4,-,N/A,,Clear,310,2013-09-26 02:55:00
8:15 PM,62.6,39.2,42,29.74,10.0,NW,10.4,-,N/A,,Clear,310,2013-09-26 03:15:00
8:35 PM,62.6,39.2,42,29.75,10.0,NW,11.5,-,N/A,,Clear,310,2013-09-26 03:35:00
8:55 PM,62.6,39.2,42,29.75,10.0,NW,10.4,-,N/A,,Clear,310,2013-09-26 03:55:00
9:15 PM,60.8,39.2,45,29.75,10.0,NW,10.4,-,N/A,,Clear,310,2013-09-26 04:15:00
9:35 PM,60.8,39.2,45,29.75,10.0,NW,10.4,-,N/A,,Clear,320,2013-09-26 04:35:00
9:55 PM,60.8,39.2,45,29.76,10.0,NW,10.4,-,N/A,,Clear,310,2013-09-26 04:55:00
10:15 PM,60.8,39.2,45,29.76,10.0,NW,9.2,-,N/A,,Clear,310,2013-09-26 05:15:00
10:35 PM,59.0,39.2,48,29.76,10.0,NW,8.1,-,N/A,,Clear,310,2013-09-26 05:35:00
10:55 PM,57.2,39.2,51,29.76,10.0,WNW,10.4,-,N/A,,Clear,300,2013-09-26 05:55:00
11:15 PM,57.2,39.2,51,29.76,10.0,NW,12.7,-,N/A,,Clear,310,2013-09-26 06:15:00
11:35 PM,59.0,39.2,48,29.77,10.0,NW,12.7,-,N/A,,Clear,320,2013-09-26 06:35:00
11:55 PM,57.2,41.0,55,29.77,10.0,NW,10.4,-,N/A,,Clear,310,2013-09-26 06:55:00